Вернуться в каталог

NUSAT-40

C SHOEMAKER

АктивенНаукаPO
NORAD 56943·PAYLOAD·🇦🇷 Argentina

Запущен Jun 12, 2023 с Vandenberg Space Force Base

Loading…

Ближайшие Пролёты (ближайшие 24 часа)

TLE

СвежийSource: Space-Track

Эпоха: Sep 14, 2026, 05:42 UTC

1 56943U 23084M   26257.23770882  .04924417  25723-5  61601-3 0  9995
2 56943  97.4777  52.8898 0011724 268.7756  91.2198 16.35922825182965

Отслеживайте NUSAT-40 в реальном времени с AllMySat

Download on the App Store